Powrót do katalogu

STARLINK-1309

AktywnyŁącznośćVLEO
NORAD 45414·PAYLOAD·🇺🇸 United States

Wystrzelony Mar 18, 2020 z Cape Canaveral Space Force Station

Loading…

Następne Przeloty (najbliższe 24 godziny)

TLE

ŚwieżeSource: CelesTrak SupGP

Epoka: Sep 15, 2026, 01:55 UTC

1 45414C 20019BG  26258.08034722  .00148900  00000+0  51070-3 0  2584
2 45414  53.0511 265.7929 0006286  35.7480  79.5206 15.88827831    15

Śledź STARLINK-1309 w czasie rzeczywistym z AllMySat

Download on the App Store